Regional Weather Roundup
Issued by NWS

Home | Current Version | Previous Version | Text Only | Print | Product List | Glossary On
Versions: 1 2 3 4 5 6 7 8 9 10 11 12 13 14 15 16 17 18 19 20 21 22 23 24 25 26 27 28 29 30 31 32 33 34 35 36 37 38 39 40 41 42 43 44 45 46 47 48 49 50
000
ASUS43 KDTX 251510
RWRMI
MICHIGAN HOURLY REGIONAL WEATHER ROUNDUP
NATIONAL WEATHER SERVICE DETROIT/PONTIAC MI
1000 AM EST SUN FEB 25 2018

NOTE: "FAIR" INDICATES FEW OR NO CLOUDS BELOW 12,000 FEET WITH NO
SIGNIFICANT WEATHER AND/OR OBSTRUCTION TO VISIBILITY.

MIZ047>049-052>055-059>063-066>070-074>076-081>083-251600-
SOUTHEAST LOWER MICHIGAN

CITY           SKY/WX    TMP DP  RH WIND       PRES   REMARKS
ADRIAN         CLOUDY    37  28  70 W21G35    29.84R WCI  26
ALMA           CLOUDY    35  27  72 SW21G35   29.70R WCI  24
ANN ARBOR      CLOUDY    39  31  72 SW24G33   29.78R WCI  28
BAD AXE        CLOUDY    37  29  73 SW28G43   29.62R WCI  25
CARO           CLOUDY    37  29  73 SW29G40   29.66R WCI  25
DETROIT CITY   PTSUNNY   42  32  67 W18G29    29.75R
DETROIT        PTSUNNY   41  31  67 SW24G35   29.79R
FLINT          CLOUDY    37  28  70 W18G26    29.72R WCI  27
GROSSE ILE     PTSUNNY   40  31  70 W18G31    29.79R WCI  31
HILLSDALE      CLOUDY    34  28  80 W15G28    29.81R WCI  24
HOWELL         CLOUDY    37  30  78 SW18G29   29.75R WCI  26

CITY           SKY/WX    TMP DP  RH WIND       PRES   REMARKS
JACKSON        CLOUDY    37  27  67 SW23G39   29.79R WCI  26
LAMBERTVILLE   PTSUNNY   38  30  72 W16G29    29.85R WCI  30
LANSING        CLOUDY    36  28  73 W21G32    29.75R WCI  25
LAPEER         CLOUDY    38  29  68 W24G36    29.70R WCI  27
MASON          CLOUDY    37  26  63 W16G25    29.76R WCI  28
MONROE         CLOUDY    39  31  72 SW22G33   29.82R WCI  29
MT. CLEMENS    MOSUNNY   43  35  73 W21G29    29.72R
PONTIAC        PTSUNNY   38  27  64 W22G33    29.72R WCI  27
PORT HOPE        N/A     39  29  67 W20G41    29.56R WCI  29
PORT HURON     FAIR      43  30  61 SW13G24   29.70R
TRI CITIES     CLOUDY    37  26  64 W35G48    29.66R WCI  24
MIDLAND        CLOUDY    36  25  65 W28G37    29.64R WCI  23
TROY           FAIR      41  30  65 SW21G33   29.77R
SAGINAW HB     CLOUDY    36  28  75 SW29G39   29.67R WCI  23
$$
MIZ043>046-050>051-056>058-064>065-071>073-077>080-251600-
SOUTHWEST LOWER MICHIGAN

CITY           SKY/WX    TMP DP  RH WIND       PRES   REMARKS
BATTLE CREEK   CLOUDY    36  25  64 W23G29    29.82R WCI  24
BENTON HARBOR  PTSUNNY   37  28  70 SW25G33   29.84R WCI  25
BIG RAPIDS     CLOUDY    32  23  69 W18G32    29.65R WCI  20
COLDWATER      CLOUDY    36  30  78 W18G24    29.82R WCI  26
FREMONT        CLOUDY    33  21  62 SW16G29   29.71R WCI  22
HOLLAND        PTSUNNY   36  27  69 W30G39    29.79R WCI  23
GRAND RAPIDS   CLOUDY    35  27  72 W26G36    29.75R WCI  22
IONIA          CLOUDY    35  27  72 SW26G40   29.73R WCI  22
KALAMAZOO      CLOUDY    36  26  67 SW23G30   29.82R WCI  24
LUDINGTON      CLOUDY    31  23  72 W20G30    29.66R WCI  19
MARSHALL       CLOUDY    35  26  71 SW23G31   29.79R WCI  23
MOUNT PLEASANT CLOUDY    35  25  68 SW26G38   29.65R WCI  22
MUSKEGON       CLOUDY    35  25  66 SW24G31   29.75R WCI  23
SOUTH HAVEN    FAIR      37  28  71 SW22G33   29.82R WCI  26
$$
MIZ016>042-251600-
NORTHERN LOWER MICHIGAN

CITY           SKY/WX    TMP DP  RH WIND       PRES   REMARKS
ALPENA         CLOUDY    37  31  78 SW18G30   29.46R WCI  27
BEAVER ISLAND  CLOUDY    32  26  81 SW28G40   29.42R WCI  18
BELLAIRE       CLOUDY    32  26  80 SW14G23   29.53R WCI  22
CADILLAC       CLOUDY    29  24  81 SW28G36   29.56R WCI  14
CHARLEVOIX     CLOUDY    31  24  74 SW30G44   29.52R WCI  17
FRANKFORT      CLOUDY    32  23  70 SW15G33   29.60R WCI  21
GAYLORD        CLOUDY    30  29  96 SW33G44   29.46R WCI  14
GRAYLING       CLOUDY    32  27  81 W18G29    29.51R WCI  20
HARBOR SPRINGS CLOUDY    32  25  76 SW23G38   29.46R WCI  19
HOUGHTON LAKE  CLOUDY    32  25  75 SW20G36   29.54R WCI  20
MANISTEE       CLOUDY    30  23  75 SW20G32   29.63R WCI  17
OSCODA         CLOUDY    37  29  73 SW26G38   29.52R WCI  25
PELLSTON       CLOUDY    32  26  78 SW22G46   29.43R WCI  19
ROGERS CITY    CLOUDY    35  30  82 SW26G41   29.41R WCI  22
TRAVERSE CITY  CLOUDY    33  23  66 SW21G30   29.53R WCI  21
$$
MIZ007>008-015-251600-
EASTERN UPPER MICHIGAN

CITY           SKY/WX    TMP DP  RH WIND       PRES   REMARKS
KINROSS        CLOUDY    33  31  92 SW18G28   29.33R WCI  22
NEWBERRY       CLOUDY    32  32  99 SW20G29   29.31R WCI  20
S. S. MARIE    LGT SNOW  36  31  82 SW20G28   29.32R WCI  25
MUNISING         N/A     34  30  85 SW15G24   29.31R WCI  24
$$
MIZ004>006-011>014-085-251600-
CENTRAL UPPER MICHIGAN

CITY           SKY/WX    TMP DP  RH WIND       PRES   REMARKS
MANISTIQUE     CLOUDY    30  29  95 SW12G20   29.38R WCI  21
ESCANABA       CLOUDY    28  24  85 SW20G30   29.42R FOG     WCI  15
MENOMINEE      CLOUDY    27  22  81 W13G24    29.52R WCI  16
SAWYER-GWINN   CLOUDY    30  23  74 SW22G33   29.31R WCI  17
$$
MIZ001>003-009>011-084-251600-
WESTERN UPPER MICHIGAN

CITY           SKY/WX    TMP DP  RH WIND       PRES   REMARKS
IRON MOUNTAIN  LGT SNOW  26  20  77 SW20G32   29.40R WCI  12
HOUGHTON       LGT SNOW  27  21  78 W30G41    29.25R VSB 1   WCI  11
COPPER HARBOR    N/A     31  25  78 NW14G36   29.21R WCI  21
IRONWOOD       LGT SNOW  24  18  77 W23G33    29.41R WCI   9
$$

ABBREVIATIONS USED IN REMARKS
   TC - TEMPERATURE IN CELSIUS
  WCI - WIND CHILL INDEX
   HX - HEAT INDEX
  VSB - VISIBILITY




USA.gov is the U.S. government's official web portal to all federal, state and local government web resources and services.